Reflectivity
-20 -20 -20 -20 -20 -20 -20 -20 -20 -20 -20 -20 -20 -20 -20 -20 -20 -20 -20 -20 -20 -20 -20 -20 -20 -20 -20 -20 -20 -20 -20 -20 -20 -20 -20 -20 -20 -20 -20 -18 -12 -20 -20 -20 -20
-20 -20 -20 -20 -20 -20 -20 -20 -20 -20 -20 -20 -20 -20 -20 -20 -20 -20 -20 -20 -20 -20 -20 -20 -20 -20 -20 -20 -20 -20 -20 -20 -20 -20 -20 -20 -20 -20 -20 -20 -20 -20 -20 -14 -20
-20 -20 -20 -20 -20 -20 -20 -20 -20 -20 -20 -20 -20 -20 -20 -20 -20 -20 -20 -20 -20 -20 -20 -20 -20 -20 -20 -20 -20 -20 -20 -20 -20 -20 -20 -20 -20 -20 -20 -20 -20 -20 -20 -20 -20
-20 -20 -20 -20 -20 -20 -20 -20 -20 -20 -20 -20 -20 -20 -20 -20 -20 -20 -20 -20 -20 -20 -20 -20 -20 -20 -20 -20 -20 -20 -20 -20 -20 -20 -20 -20 -20 -20 -20 -20 -20 -19 -18 -20 -8
-20 -20 -20 -20 -20 -20 -20 -20 -20 -20 -20 -20 -20 -20 -20 -20 -20 -20 -20 -20 -20 -20 -20 -20 -20 -20 -20 -20 -20 -20 -20 -20 -20 -20 -20 -20 -20 -20 -20 -20 -20 -12 -20 -20 -20
-20 -20 -20 -20 -20 -20 -20 -20 -20 -20 -20 -20 -20 -20 -20 -20 -20 -20 -20 -20 -20 -20 -20 -20 -20 -20 -20 -20 -20 -20 -20 -20 -20 -20 -20 -20 -20 -20 -20 -20 -20 -20 -20 -20 -20
-20 -20 -20 -20 -20 -20 -20 -20 -20 -20 -20 -20 -20 -20 -20 -20 -20 -20 -20 -20 -20 -20 -20 -20 -20 -20 -20 -20 -20 -20 -20 -20 -20 -20 -20 -20 -20 -20 -20 -20 -20 -20 -20 -20 -20
-20 -20 -20 -20 -20 -20 -20 -20 -20 -20 -20 -20 -20 -20 -20 -20 -20 -20 -20 -20 -20 -20 -20 -20 -20 -20 -20 -20 -20 -20 -20 -20 -20 -20 -20 -20 -20 -20 -20 -20 -20 -20 -20 -20 -20
-20 -20 -20 -20 -20 -20 -20 -20 -20 -20 -20 -20 -20 -20 -20 -20 -20 -20 -20 -20 -20 -20 -20 -20 -20 -20 -20 -20 -20 -20 -20 -20 -20 -20 -20 -20 -20 -20 -20 -20 -20 -20 -20 -20 -20
-20 -20 -20 -20 -20 -20 -20 -20 -20 -20 -20 -20 -20 -20 -20 -20 -20 -20 -20 -20 -20 -20 -20 -20 -20 -20 -20 -20 -20 -20 -20 -20 -20 -20 -20 -20 -20 -20 -20 -20 -20 -20 -20 -20 -20
-20 -20 -20 -20 -20 -20 -20 -20 -20 -20 -20 -20 -20 -20 -20 -20 -20 -20 -20 -20 -20 -20 -20 -20 -20 -20 -20 -20 -20 -20 -20 -20 -20 -20 -20 -20 -20 -20 -20 -20 -20 -20 -20 -20 -20
-20 -20 -20 -20 -20 -20 -20 -20 -20 -20 -20 -20 -20 -20 -20 -20 -20 -20 -20 -20 -20 -20 -20 -20 -20 -20 -20 -20 -20 -20 -20 -20 -20 -20 -20 -20 -20 -20 -20 -20 -20 -20 -20 -20 -20
-20 -20 -20 -20 -20 -20 -20 -20 -20 -20 -20 -20 -20 -20 -20 -20 -20 -20 -20 -20 -20 -20 -20 -20 -20 -20 -20 -20 -20 -20 -20 -20 -20 -20 -20 -20 -20 -20 -20 -20 -20 -20 -20 -20 -20
-20 -20 -20 -20 -20 -20 -20 -20 -20 -20 -20 -20 -20 -20 -20 -20 -20 -20 -20 -20 -20 -20 -18 -20 -20 -20 -20 -20 -20 -20 -20 -20 -20 -20 -20 -20 -20 -20 -20 -20 -20 -20 -20 -20 -20
-20 -20 -20 -20 -20 -20 -20 -20 -20 -20 -20 -20 -20 -20 -20 -20 -20 -20 -20 -20 -20 -20 -20 -20 -20 -20 -0 -20 -20 -20 -20 -20 -20 -20 -20 -20 -20 -20 -20 -20 -20 -20 -20 -20 -20
-20 -20 -20 -20 -20 -20 -20 -20 -20 -20 -20 -20 -20 -20 -20 -20 -20 -20 -20 -20 -20 -20 -20 -20 -20 -20 -20 -20 -2 -20 -10 -20 -20 -20 10 -20 -20 -20 -20 -20 -20 -20 -20 -20 -20
-20 -20 -20 -20 -20 -20 -20 -20 -20 -20 -20 -20 -20 -20 -20 -20 -20 -20 -20 -20 -20 -20 -20 -20 -20 -20 -20 -20 -20 -1 -0 15 1 12 3 -20 -20 -20 -20 -20 -20 -20 -20 -20 -20
-20 -20 -20 -20 -20 -20 -20 -20 -20 -20 -20 -20 -20 -20 -20 -20 -20 -20 -20 -20 -20 -20 -20 -20 -14 -17 -12 -20 -20 -20 -17 -2 2 -20 -20 -20 -20 -20 -20 -20 -20 -20 -20 -20 -20
-20 -20 -20 -20 -20 -20 -20 -20 -20 -20 -20 -20 -20 -20 -20 -20 -6 -20 -20 -20 -20 -20 9 3 -13 7 -16 -13 -20 25 17 -20 -20 9 1 -20 -20 -20 -20 -20 -20 -20 -20 -20 -20
-20 -20 -20 -20 -20 -20 -20 -20 -20 -20 -20 -20 -20 -20 -12 -8 -20 -13 -20 -20 -20 -20 -7 -13 5 14 9 29 21 -20 -17 22 19 11 20 -20 -20 -0 -1 -20 -20 -20 -20 -20 -20
-20 -20 -20 -20 -20 -20 -20 -20 -20 -20 -20 -20 -20 -17 -16 -20 -20 -20 -20 -20 -20 -20 -20 -20 -11 -15 -11 20 4 6 24 22 -12 -15 20 -17 11 22 5 -1 -0 3 -20 -20 -20
-20 -20 -20 -20 -20 -20 -20 -20 -20 -20 -20 -20 -20 -20 -19 -20 -20 -20 -20 -20 -20 -20 -20 -20 6 -3 -10 11 25 22 27 21 -20 12 13 -20 4 -3 2 16 17 -20 -20 -20 -20
-20 -20 -20 -20 -20 -20 -20 -20 -20 -20 -20 -20 -20 -20 -20 -20 -20 -20 -19 -20 -20 -20 -20 8 -18 -8 -11 14 15 28 10 -0 13 -20 4 -20 -16 -20 -20 4 4 -20 -20 -20 -20
-20 -20 -20 -20 -20 -20 -20 -20 -20 -20 -20 -20 -9 -17 -19 -10 -8 -12 -7 -13 -20 -7 9 14 6 13 16 21 8 16 -18 -20 12 -12 -6 -7 -12 -20 23 -3 -16 -20 -20 -1 -15
-20 -20 -20 -20 -20 -20 -20 -20 -20 -20 -20 -20 -20 -20 -18 -20 -8 -19 11 13 13 22 19 15 8 16 18 14 -19 -19 -12 -20 -20 -20 -20 -11 -5 -17 10 19 12 3 16 29 19
-20 -20 -20 -20 -20 -20 -20 -20 -20 -20 -20 -20 -20 -20 -20 -20 -20 8 8 2 23 6 7 10 24 23 20 17 -13 -20 3 -6 -20 -20 -20 -20 -8 -17 3 19 28 32 19 7 7
-20 -20 -20 -20 -20 -20 -20 -20 -20 -20 -20 -20 -20 -20 -20 -20 -20 -20 -14 -19 2 3 -20 -18 -8 8 16 7 20 9 18 1 7 -3 7 11 15 2 -9 10 26 24 30 25 16
Wind_Speed
10 10 11 12 12 12 12 12 13 13 13 14 15 16 18 20 19 2 6 9 4 5 3 4 2 2 3 2 2 4 5 4 6 7 5 4 2 5 4 4 2 2 7 10 20
11 11 12 12 12 12 12 12 12 13 14 14 15 16 17 19 4 6 10 6 10 6 1 2 2 2 3 2 1 5 5 11 7 6 3 4 3 5 5 5 2 3 5 20 20
12 12 13 13 13 13 13 13 13 13 14 14 15 16 15 10 4 6 3 7 5 3 1 1 2 2 2 1 3 5 8 6 5 4 3 3 6 4 4 6 6 6 12 21 23
13 13 14 15 15 15 15 14 14 14 14 14 15 14 13 2 4 4 6 6 2 1 2 1 2 4 4 5 3 2 7 5 3 3 2 5 4 6 6 6 11 9 17 21 25
13 14 15 15 15 15 15 14 14 13 13 13 13 9 5 3 9 6 4 5 3 2 2 3 3 4 5 4 1 4 4 5 7 5 6 7 9 8 11 7 10 5 15 18 22
13 14 15 16 16 16 15 15 15 13 11 10 9 2 1 3 3 3 5 3 2 3 2 4 5 4 2 3 4 2 3 6 5 2 4 7 9 3 2 2 9 7 16 18 20
14 15 15 16 16 16 16 16 16 13 10 7 2 1 0 11 3 6 1 3 3 3 3 4 3 2 2 2 3 3 6 7 3 5 6 2 17 18 7 6 8 7 14 16 20
15 15 15 15 16 16 16 17 18 15 8 5 3 1 7 5 2 5 4 9 8 9 6 7 5 3 4 1 6 4 1 3 5 4 5 11 23 6 5 5 9 7 10 15 16
15 15 14 14 15 15 15 17 16 4 6 6 3 2 8 5 4 5 2 6 8 4 6 6 4 5 3 5 4 3 5 5 6 3 1 7 11 5 6 8 10 9 9 14 13
15 14 14 14 14 15 14 7 4 10 5 4 2 2 4 9 8 11 10 8 7 4 2 5 2 4 3 4 8 6 6 5 4 4 3 8 17 7 9 10 9 10 8 10 14
14 14 15 15 14 15 5 3 7 5 6 2 2 4 6 14 9 13 16 7 8 5 1 4 5 8 10 8 7 4 5 8 2 6 5 6 13 11 8 11 9 10 7 10 14
13 14 15 16 12 9 4 6 2 4 5 7 3 3 5 7 6 17 13 10 7 5 8 5 10 5 8 11 12 9 15 19 7 8 8 12 20 16 10 11 10 10 9 11 13
13 15 16 16 3 6 4 4 3 4 3 5 2 14 16 8 5 12 11 6 2 4 5 6 5 11 8 9 13 16 19 13 13 7 9 8 17 14 9 8 9 9 8 13 17
13 14 18 11 8 3 1 4 3 3 4 5 8 6 10 10 3 5 6 5 5 5 9 11 6 2 6 9 13 19 14 16 15 9 7 7 10 7 5 9 9 9 10 14 14
11 12 12 10 2 1 4 6 2 5 5 7 4 3 9 7 9 8 5 5 6 8 5 10 11 14 16 15 9 15 13 15 12 11 6 9 7 3 7 9 10 7 10 13 16
12 12 11 3 2 4 5 4 5 8 2 4 2 9 11 4 5 7 4 3 5 5 9 16 9 9 20 16 16 7 2 4 3 3 8 15 7 11 13 12 8 7 8 12 15
12 13 4 1 5 5 2 4 7 9 6 9 12 8 15 4 9 6 5 6 1 6 7 20 5 6 18 19 17 12 7 4 4 8 7 11 8 21 6 7 12 14 10 10 13
13 7 6 2 6 1 5 8 14 6 5 9 11 15 11 5 6 12 7 8 3 5 5 5 10 5 6 15 18 18 13 6 8 9 11 14 8 14 2 9 9 8 6 8 11
7 5 5 10 8 4 8 10 8 4 5 6 11 11 10 3 8 5 3 5 6 3 2 7 9 15 14 13 20 13 12 13 4 2 6 4 5 2 10 12 15 14 12 9 12
3 4 8 14 7 8 8 9 3 4 6 5 5 4 16 10 7 6 4 5 4 4 3 5 12 4 13 9 3 9 11 9 6 5 6 4 3 4 13 17 17 16 14 14 14
5 5 6 12 6 7 7 3 3 6 8 5 7 9 8 5 3 4 5 8 4 6 1 2 4 12 9 2 3 5 5 5 6 5 4 4 4 8 12 14 17 18 16 17 14
4 6 6 5 7 2 4 4 8 6 5 5 4 2 2 5 4 2 5 4 10 3 4 4 5 6 7 15 6 2 8 4 6 9 6 3 4 10 14 15 17 18 20 23 12
5 1 6 7 5 4 5 5 3 6 4 5 5 1 2 3 4 4 5 3 13 4 5 5 3 7 4 4 6 6 8 4 1 4 4 5 3 12 17 19 19 20 23 26 3
5 4 6 6 1 3 3 6 10 7 4 3 4 6 3 3 4 6 8 8 13 6 13 7 3 4 5 7 8 15 26 21 6 4 4 6 8 20 24 19 22 23 24 22 20
4 1 4 4 6 6 4 6 8 7 3 8 5 10 6 4 3 4 5 7 6 6 3 3 3 1 13 15 30 27 26 24 26 18 8 9 8 18 22 21 20 18 21 20 21
5 5 4 2 3 5 8 5 4 8 3 9 7 17 2 4 5 5 6 3 5 4 3 3 4 3 3 6 26 27 23 24 21 25 9 9 13 21 18 11 20 23 21 20 19
2 2 6 5 4 4 5 5 6 6 5 5 9 5 6 4 12 9 4 5 5 9 2 3 2 2 3 9 6 24 22 12 13 14 14 16 15 19 18 13 12 21 20 19 18
Wind_Direction
343 341 338 335 332 331 330 329 329 330 331 332 332 331 331 331 327 0 249 220 186 226 199 304 350 82 75 92 126 125 76 205 225 158 239 296 10 310 269 227 105 172 161 155 140
339 338 334 329 326 326 326 327 326 327 328 331 332 331 331 334 322 268 248 233 242 198 195 155 88 86 77 184 144 117 141 219 203 188 239 293 321 314 292 289 63 1 38 132 142
334 331 327 324 322 323 324 324 324 325 326 328 328 329 332 338 320 263 185 220 183 188 101 75 92 92 133 149 203 178 197 202 223 193 213 248 300 228 272 293 248 201 165 151 153
332 329 326 324 322 322 323 322 321 322 324 327 328 331 329 338 306 338 147 170 169 121 45 105 118 131 164 201 218 219 242 212 230 220 277 260 255 258 217 252 285 155 183 166 170
329 325 323 321 319 318 318 315 312 315 320 321 326 339 358 2 257 307 141 155 113 118 208 199 168 157 179 204 277 196 254 257 271 308 264 268 248 247 271 247 272 174 175 184 183
327 325 323 321 317 316 315 311 308 309 311 312 327 346 37 283 306 285 131 103 267 198 223 205 204 204 222 238 176 259 281 274 286 269 272 282 275 203 1 261 253 187 185 191 190
328 325 322 319 316 316 314 308 301 298 299 304 303 214 341 243 19 5 176 226 226 218 218 218 219 130 94 329 323 314 333 323 219 186 235 52 288 241 204 257 253 207 186 190 196
327 326 324 320 317 316 311 304 296 292 278 266 181 176 250 255 34 320 258 287 243 226 234 243 189 141 156 256 8 7 265 332 304 140 230 134 259 81 178 251 266 247 196 203 203
331 330 326 318 315 311 310 306 311 325 171 161 106 132 283 300 5 339 4 278 291 246 252 265 146 189 110 97 1 360 248 231 328 277 153 185 276 301 343 289 271 264 210 202 205
333 330 325 318 322 311 320 312 93 96 121 162 239 330 1 317 313 1 333 299 238 262 300 174 198 175 99 122 228 197 237 244 206 323 251 259 271 295 296 291 261 262 238 203 190
333 332 327 323 323 318 18 31 17 346 44 343 18 338 291 311 44 9 349 346 1 41 353 282 202 209 206 202 195 203 256 255 122 285 317 255 278 280 258 269 268 272 225 209 200
338 336 331 328 327 335 78 80 82 213 336 340 186 240 316 294 356 12 14 30 7 342 320 328 261 264 211 210 223 219 244 259 276 236 252 275 271 272 249 252 240 236 227 210 206
345 336 336 338 359 42 79 78 295 134 102 315 81 24 23 339 63 357 18 331 305 284 284 249 263 298 270 259 226 227 231 242 248 252 248 267 278 269 267 236 250 231 218 209 204
345 342 344 353 46 312 344 335 342 129 94 22 11 17 355 322 69 352 4 345 307 293 320 275 245 258 308 275 236 236 219 239 248 247 236 136 282 254 257 264 241 241 215 207 212
338 340 349 25 218 44 261 334 312 61 88 0 15 319 337 60 270 355 4 336 284 291 271 247 276 269 272 260 271 253 236 236 245 245 246 257 263 291 202 252 254 256 241 217 212
333 330 337 3 11 246 328 312 52 46 285 342 310 316 349 328 323 312 320 20 269 278 272 269 276 240 236 225 244 217 338 319 252 195 229 244 197 269 246 243 262 246 235 221 219
333 325 6 86 290 319 336 48 45 78 308 331 317 316 326 288 327 341 322 330 232 350 309 310 244 272 220 228 212 201 159 219 223 224 242 219 206 246 270 235 239 257 251 231 221
331 358 322 201 289 267 54 58 65 260 269 276 293 301 293 302 304 316 321 319 271 220 288 299 317 18 343 240 203 176 183 180 210 215 223 208 200 235 217 353 358 331 322 289 220
0 340 4 336 337 69 70 54 183 243 274 292 301 283 288 295 323 312 280 255 237 193 283 305 281 309 293 283 210 185 194 215 328 219 286 193 194 29 13 352 343 328 325 299 271
66 16 5 327 360 49 65 104 178 227 290 290 302 304 310 314 307 355 300 256 279 251 152 290 294 297 309 241 188 170 173 164 196 216 236 185 174 53 0 337 332 318 321 312 313
52 46 301 341 47 43 73 56 332 316 338 332 314 314 317 302 316 300 263 284 248 287 319 294 264 298 307 12 128 151 176 210 131 145 283 146 89 9 354 336 322 320 320 313 284
81 51 308 6 49 32 42 8 315 315 22 351 313 305 282 294 298 269 275 249 313 331 320 237 279 291 295 301 290 234 189 208 131 162 240 145 143 22 5 341 338 330 338 328 253
81 73 325 61 70 358 331 352 324 338 337 357 309 28 245 271 300 241 270 302 348 334 1 359 320 313 343 24 25 35 358 158 93 43 6 91 313 7 357 346 342 349 351 342 311
85 38 335 41 342 111 40 0 343 321 300 306 270 294 277 250 239 287 309 312 339 34 19 351 302 320 30 35 55 53 39 31 62 37 81 31 341 6 344 343 347 356 354 349 357
40 236 192 352 354 35 51 345 339 337 316 349 312 334 313 297 277 275 269 278 313 350 359 290 272 211 59 67 65 56 44 40 47 14 50 347 13 5 340 344 352 350 350 355 2
116 122 16 18 2 24 16 325 322 322 300 334 337 323 288 279 326 306 337 340 325 302 297 292 356 109 118 79 60 53 32 38 33 20 20 358 14 344 331 335 360 354 348 353 355
344 49 102 354 352 45 340 297 291 320 287 278 307 300 322 280 311 266 198 259 260 6 301 293 293 284 9 339 304 38 9 25 28 27 11 21 333 331 336 331 1 354 347 343 350